Fort Wayne, IN

1:48 PM EDT on August 21, 2019 (GMT -0400)
Fort Wayne International

Weather History for KFWA - June, 2019

Change the Weather History Date:

Saturday, June 8, 2019

  Actual Average Record
Temperature  
Mean Temperature 73 °F 68 °F  
Max Temperature 83 °F 79 °F 97 °F (2011)
Min Temperature 62 °F 57 °F 39 °F (1913)
Degree Days  
Heating Degree Days 0 1  
Month to date heating degree days 7 17  
Since 1 June heating degree days 7 17  
Since 1 July heating degree days 5854 6089  
Cooling Degree Days 8 4  
Month to date cooling degree days 37 31  
Year to date cooling degree days 105 88  
Since 1 June cooling degree days 37 31  
Growing Degree Days 22 (Base 50)    
Moisture  
Dew Point 56 °F    
Average Humidity 58    
Maximum Humidity 68    
Minimum Humidity 47    
Precipitation  
Precipitation T in 0.16 in 2.08 in (1958)
Month to date precipitation 0.24 1.25  
Year to date precipitation 18.11 16.05  
Sea Level Pressure  
Sea Level Pressure 29.97 in    
Wind  
Wind Speed 15 mph (ENE)    
Max Wind Speed 25 mph    
Max Gust Speed 37 mph    
Visibility 10 miles    
Events Rain    
T = Trace of Precipitation, MM = Missing Value Source: NWS Daily Summary

Daily Weather History Graph

Daily Weather History Graph

Search for Another Location

Airport or City:

Astronomy

Jun. 08, 2019 Rise Set
Actual Time 6:08 AM EDT 9:11 PM EDT
Civil Twilight 5:35 AM EDT 9:44 PM EDT
Nautical Twilight 4:53 AM EDT 10:26 PM EDT
Astronomical Twilight 4:03 AM EDT 11:16 PM EDT
Moon 11:36 AM EDT (6/8) 1:11 AM EDT (6/8)
Length of Visible Light 16h 08m
Length of Day
15h 02m
Waxing Crescent, 32% of the Moon is Illuminated
Jun 8
Waxing Crescent
Jun 10
First Quarter
Jun 17
Full
Jun 25
Last Quarter
Jul 2
New

Hourly Weather History & Observations

Time (EDT) Temp. Heat Index Dew Point Humidity Pressure Visibility Wind Dir Wind Speed Gust Speed Precip Events Conditions
12:54 AM 66.0 °F - 51.1 °F 59% 29.98 in 10.0 mi ENE 12.7 mph - N/A   Scattered Clouds
1:54 AM 64.9 °F - 48.9 °F 56% 29.97 in 10.0 mi ENE 13.8 mph - N/A   Mostly Cloudy
2:54 AM 64.0 °F - 48.0 °F 56% 29.96 in 10.0 mi ENE 11.5 mph - N/A   Mostly Cloudy
3:54 AM 63.0 °F - 50.0 °F 63% 29.96 in 10.0 mi ENE 12.7 mph - N/A   Mostly Cloudy
4:54 AM 63.0 °F - 51.1 °F 65% 29.96 in 10.0 mi ENE 13.8 mph - N/A   Mostly Cloudy
5:54 AM 63.0 °F - 51.1 °F 65% 29.97 in 10.0 mi ENE 12.7 mph - N/A   Mostly Cloudy
6:54 AM 63.0 °F - 52.0 °F 67% 29.96 in 10.0 mi ENE 15.0 mph - N/A   Mostly Cloudy
7:54 AM 64.0 °F - 53.1 °F 67% 29.97 in 10.0 mi ENE 12.7 mph - N/A   Mostly Cloudy
8:54 AM 66.9 °F - 55.0 °F 66% 29.98 in 10.0 mi ENE 17.3 mph - N/A   Mostly Cloudy
9:54 AM 71.1 °F - 57.9 °F 63% 29.99 in 10.0 mi ENE 13.8 mph - N/A   Mostly Cloudy
10:54 AM 73.9 °F - 60.1 °F 62% 29.98 in 10.0 mi ENE 18.4 mph 27.6 mph N/A   Overcast
11:54 AM 75.9 °F - 60.1 °F 58% 29.98 in 10.0 mi East 16.1 mph - N/A   Overcast
12:54 PM 80.1 °F 81.1 °F 61.0 °F 52% 29.98 in 10.0 mi ENE 18.4 mph 28.8 mph N/A   Overcast
1:54 PM 79.0 °F - 61.0 °F 54% 29.96 in 10.0 mi East 19.6 mph 27.6 mph N/A   Mostly Cloudy
2:54 PM 81.0 °F 81.7 °F 61.0 °F 50% 29.96 in 10.0 mi East 20.7 mph 35.7 mph N/A   Mostly Cloudy
3:54 PM 82.0 °F 82.7 °F 61.0 °F 49% 29.95 in 10.0 mi East 21.9 mph 29.9 mph N/A   Mostly Cloudy
4:54 PM 81.0 °F 81.9 °F 62.1 °F 52% 29.94 in 10.0 mi East 18.4 mph 29.9 mph N/A   Mostly Cloudy
5:54 PM 81.0 °F 81.7 °F 61.0 °F 50% 29.94 in 10.0 mi East 19.6 mph 31.1 mph N/A   Overcast
6:54 PM 79.0 °F - 60.1 °F 52% 29.94 in 10.0 mi ESE 16.1 mph 27.6 mph N/A   Overcast
7:54 PM 75.0 °F - 57.9 °F 55% 29.96 in 10.0 mi East 17.3 mph 28.8 mph 0.00 in Rain Light Rain
8:54 PM 73.9 °F - 57.0 °F 55% 29.97 in 10.0 mi ENE 13.8 mph - 0.00 in   Overcast
9:54 PM 72.0 °F - 57.0 °F 59% 29.98 in 10.0 mi East 11.5 mph - 0.00 in Rain Light Rain
10:54 PM 72.0 °F - 55.9 °F 57% 29.98 in 10.0 mi East 10.4 mph - 0.00 in   Overcast
11:54 PM 70.0 °F - 57.0 °F 63% 29.97 in 10.0 mi ENE 9.2 mph - N/A   Overcast